Regional Weather Roundup
Issued by NWS State College, PA

Home | Current Version | Previous Version | Text Only | Print | Product List | Glossary On
Versions: 1 2 3 4 5 6 7 8 9 10 11 12 13 14 15 16 17 18 19 20 21 22 23 24 25 26 27 28 29 30 31 32 33 34 35 36 37 38 39 40 41 42 43 44 45 46 47 48 49 50
000
ASUS41 KCTP 220903
RWRCTP

REGIONAL WEATHER ROUNDUP
NATIONAL WEATHER SERVICE STATE COLLEGE PA
400 AM EST MON DEC 22 2014

Note: "fair" indicates few or no clouds below 12,000 feet with no
significant weather and/or obstructions to visibility.

* = STATION THAT DOES NOT REPORT PRECIPITATION /E.G. RAIN...SNOW...ETC/
    THUNDER OR FOG.

PAZ002>004-007>009-013>016-020>023-029>032-221000-
WESTERN PENNSYLVANIA

CITY           SKY/WX    TMP DP  RH WIND       PRES   REMARKS
ERIE           PTCLDY    27  19  72 CALM      30.17F
MEADVILLE      CLEAR     24  19  81 VRB6      30.11F
FRANKLIN*      CLEAR     21  16  79 E7        30.13F WCI  13
NEW CASTLE       N/A     23  20  89 CALM      30.15F
BEAVER COUNTY  NOT AVBL
BUTLER*        PTCLDY    23  19  86 NE7       30.14S WCI  15
PITTSBURGH INT PTCLDY    24  21  88 E5        30.11F
PITTSBURGH     PTCLDY    26  19  74 SE5       30.11F
INDIANA*       CLEAR     30  23  74 SE5       30.18F
LATROBE        PTCLDY    28  23  80 CALM      30.14F
WASHINGTON CO* NOT AVBL
$$

PAZ004>006-010>012-017>019-024>028-033>037-041-042-045-046-049>053-221000-
CENTRAL PENNSYLVANIA

CITY           SKY/WX    TMP DP  RH WIND       PRES   REMARKS
BRADFORD       CLEAR     21  17  84 SE8       30.13F WCI  11
DUBOIS         PTCLDY    21  18  88 E8        30.13F WCI  11
CLEARFIELD     PTCLDY    20  18  92 NE8       30.19F WCI  10
JOHNSTOWN      CLEAR     23  18  81 SE7       30.11F WCI  15
ALTOONA        PTCLDY    19  18  95 NE3       30.20F
STATE COLLEGE  PTCLDY    19  18  95 CALM      30.23F FOG
WILLIAMSPORT   MOCLDY    21  18  88 CALM      30.30F
SELINSGROVE    CLEAR     19  16  88 CALM      30.31F FOG
FT INDIANTOWN  PTCLDY    18  16  91 CALM      30.31F
CAPITAL CITY   PTCLDY    20  18  92 SW3       30.32F FOG
HARRISBURG     PTCLDY    21  18  88 CALM      30.31F FOG
YORK           MOCLDY    18  15  88 CALM      30.29F
$$

PAZ038>040-043-044-047-048-054-055-060>062-067>071-221000-
EASTERN PENNSYLVANIA

CITY           SKY/WX    TMP DP  RH WIND       PRES   REMARKS
SCRANTON       CLOUDY    30  22  72 CALM      30.28F
MOUNT POCONO   LGT SNOW  26  24  92 E6        30.23F FOG
ALLENTOWN      CLOUDY    31  24  75 CALM      30.31F
QUAKERTOWN*    CLOUDY    28  27  93 CALM      30.31F
READING        PTCLDY    21  18  88 CALM      30.32F
LANCASTER      PTCLDY    20  17  88 CALM      30.31F FOG
COATESVILLE    MOSUNNY   27  23  86 CALM      30.31S
POTTSTOWN      CLOUDY    23  21  92 CALM      30.33F
BLUE BELL      CLOUDY    30  27  86 CALM      30.31F
DOYLESTOWN     CLOUDY    31  26  82 CALM      30.31F
WILLOW GROVE   NOT AVBL
NORTH PHILA    CLOUDY    34  24  67 N5        30.34F
PHILADELPHIA   MOCLDY    29  22  75 NW5       30.33F
$$



USA.gov is the U.S. government's official web portal to all federal, state and local government web resources and services.